Flag for Germany Weather past 2 weeks in Schwerte, North Rhine-Westphalia, Germany

Now
68 °F

Passing clouds.


Feels Like: 68 °F
Forecast: 55 / 71 °F
Wind: 5 mph from North

Location: Dortmund / Wickede

Current Time: Aug 27, 2014 at 5:16:13 PM

Latest Report: Aug 27, 2014 at 4:50 PM


Visibility: N/A

Pressure: 30.01 "Hg

Humidity: 46%

Dew point: 46 °F

Location of SchwerteLocation

Historic Weather in Schwerte — Graph

°F

Schwerte temperature yesterday

Maximum temperature yesterday: 57 °F (at 12:20 PM)
Minimum temperature yesterday: 54 °F (at 5:20 AM)
Average temperature yesterday: 56 °F

Past Weeks' High & Low Weather Summary

 TemperatureHumidityPressure
High68 °F (Aug 12, 4:20 PM)100% (Aug 27, 6:20 AM)30.09 "Hg (Aug 27, 6:20 AM)
Low45 °F (Aug 27, 5:20 AM)43% (Aug 12, 4:20 PM)29.65 "Hg (Aug 13, 3:20 PM)
Average58 °F74%29.89 "Hg
* Reported Aug 12 4:20 PM — Aug 27 4:20 PM, Schwerte, Weather by CustomWeather, © 2014

Note: Actual official high and low records may vary slightly from our data, if they occured in-between our weather recording intervals... More about our weather records

Advertising

Schwerte weather history for previous 24 hours

 ConditionsComfort  
Time TempWeatherWind HumidityBarometerVisibility
4:20 PM
Aug 27
68 °FPassing clouds.6 mph49%30.04 "HgN/A
3:50 PM68 °FPassing clouds.3 mph46%30.04 "HgN/A
3:20 PM68 °FPassing clouds.5 mph46%30.04 "HgN/A
2:50 PM66 °FPassing clouds.5 mph49%30.04 "HgN/A
2:20 PM66 °FPassing clouds.5 mph46%30.04 "HgN/A
1:50 PM66 °FScattered clouds.6 mph49%30.04 "HgN/A
1:20 PM66 °FPassing clouds.5 mph49%30.04 "HgN/A
12:20 PM64 °FPassing clouds.5 mph49%30.04 "HgN/A
11:50 AM63 °FPassing clouds.2 mph59%30.04 "HgN/A
11:20 AM63 °FPassing clouds.2 mph68%30.04 "HgN/A
10:50 AM61 °FPassing clouds.1 mph83%30.01 "Hg6 mi
10:20 AM57 °FPassing clouds.3 mph88%30.01 "Hg6 mi
9:50 AM55 °FScattered clouds.3 mph100%30.01 "Hg4 mi
9:20 AM54 °FFog.3 mph100%30.01 "Hg1 mi
8:50 AM52 °FFog.3 mph100%29.98 "Hg1 mi
8:20 AM50 °FFog.5 mph100%29.98 "Hg0 mi
7:50 AM50 °FFog.5 mph100%29.95 "Hg0 mi
7:20 AM48 °FFog.5 mph100%29.95 "Hg0 mi
6:50 AM46 °FFog.3 mph100%29.95 "Hg0 mi
6:20 AM46 °FDense fog.5 mph100%29.95 "Hg0 mi
5:50 AM45 °FFog.5 mph93%29.92 "Hg0 mi
5:20 AM45 °FClear.No wind93%29.92 "Hg4 mi
10:50 PM
Aug 26
55 °FPassing clouds.5 mph88%29.83 "HgN/A
10:20 PM55 °FPassing clouds.5 mph94%29.80 "HgN/A
9:50 PM55 °FPassing clouds.5 mph94%29.80 "HgN/A
9:20 PM55 °FPassing clouds.3 mph94%29.80 "HgN/A
8:50 PM55 °FScattered clouds.3 mph94%29.77 "HgN/A
8:20 PM55 °FSunny.3 mph88%29.77 "Hg10 mi
7:50 PM55 °FScattered clouds.3 mph88%29.77 "HgN/A
7:20 PM57 °FScattered clouds.6 mph82%29.77 "HgN/A
6:50 PM57 °FLight rain. Partly sunny.8 mph82%29.74 "Hg6 mi
6:20 PM57 °FLight rain. Scattered clouds.6 mph88%29.74 "Hg6 mi
5:50 PM57 °FLight rain. Scattered clouds.7 mph88%29.74 "HgN/A
5:20 PM57 °FLight rain. Partly sunny.7 mph88%29.74 "Hg6 mi
Weather by CustomWeather, © 2014

See weather overviewHow to use our weather pages